Tracking 30692 objects as of 16-Jun-2025
HD Live streaming from Space Station
objects crossing your sky now

TITAN 3C TRANSTAGE DEB

Track TITAN 3C TRANSTAGE DEB now!
10-day predictions


NORAD ID: 1653
Int'l Code: 1965-082Q
Perigee: 658.4 km
Apogee: 716.4 km
Inclination: 32.1 °
Period: 98.4 minutes
Semi major axis: 7058 km
RCS: 0.6097 m2 (medium)
Launch date: October 15, 1965
Source: United States (US)
Launch site: AIR FORCE EASTERN TEST RANGE (AFETR)

Note: This is SATELLITE DEBRIS
Your satellite tracking list
Your tracking list is empty




NASA's NSSDC Master Catalog

Two Line Element Set (TLE):
1 01653U 65082Q   25166.36857567  .00000335  00000-0  54795-4 0  9998
2 01653  32.1170 180.9049 0041067 334.3034  25.5572 14.64001666157700
Source of the keplerian elements: AFSPC